Location: Zagreb
(45.8000°N, 16.0000°E)
Time: 01:21:58
(UTC+01:00)

Explorer 7 - Visible Passes

Search period start: 26 January 2020 00:00
Search period end: 05 February 2020 00:00
Orbit: 485 x 679 km, 50.3° (Epoch: 25 January)

Date Brightness Start Highest point End Pass type
(mag) Time Alt. Az. Time Alt. Az. Time Alt. Az.
26 Jan 9.4 04:47:50 12° SSE 04:47:50 12° SSE 04:48:11 10° SSE visible
31 Jan 9.2 19:08:39 10° S 19:09:02 12° S 19:09:02 12° S visible
01 Feb 8.6 19:12:43 10° SSW 19:14:20 19° S 19:14:20 19° S visible
02 Feb 8.1 19:17:10 10° SW 19:19:32 30° SSW 19:19:32 30° SSW visible
03 Feb 8.8 17:43:47 10° SSE 17:45:50 14° SE 17:47:51 10° ESE visible
03 Feb 7.6 19:21:51 10° SW 19:24:40 42° SW 19:24:40 42° SW visible
04 Feb 8.3 17:47:25 10° S 17:50:33 22° SE 17:53:23 11° E visible
04 Feb 7.5 19:26:44 10° WSW 19:29:43 49° WSW 19:29:43 49° WSW visible
